Showing default

SJ-11-08, 40286

Orbit data source: Space-Track

SJ-11-08, 40286 is a payload satellite owned by CNSA (CN) in SSO that was launched on Mon, 27 Oct 2014 UTC via a CHANG ZHENG 2C launch vehicle from the Jiuquan Satellite Launch Center, China (JSC). Payload-class satellites include a variety of spacecraft equipped with specific instruments for various scientific and technological missions. These include communications satellites like Starlink; space stations such as the ISS; scientific satellites like the Hubble; Earth observation satellites from companies like Planet Labs, Umbra, and HawkEye 360; GPS; miniature CubeSats for education and research; and military/defense satellites.

Loading next visibility...
Identifier
40286, 2014-066A
Orbit
SSO
Country
Flag of CNCN / PRC
Related business
Manufacturer
DFH
Mission
Operational Defense Early Warn
Bus & Motor
CAST-2000?, Unknown motor
Mass
~300 kg wet, ~300 kg dry
Launch date (UTC)
2014-10-27 (12 years ago)
Launch vehicle
CHANG ZHENG 2C
Launch site
Jiuquan Satellite Launch Center, China (JSC)
Object type
Payload
Rocket body
Debris
Shape & HBR
Box + 2 Pan, 1.5 m
Radar Cross Section
2.045 m², Large (>1 m²)

Expand to show TLE details & history
Last TLE update: 21 hours ago

TLE from 21 hours ago
0 SJ-11-08
1 40286U 14066A   26172.55413223  .00000267  00000-0  57680-4 0  9995
2 40286  98.3531 317.4824 0011202 213.4673 146.5824 14.66175145621854
Epoch: 2026-06-21T13:17Z
TLE epoch observation values (Epoch: 2026-06-21T13:17:57.024Z)
Latitude
0.00004°
Longitude
-151.75794°
Altitude
682.891 km
Speed
7.512 km/s
True Right ascension
21h 09m 55s
True Declination
0° 00' 00"
Sunlit
Object was in full shadow at epoch
Visualization orbit readout
Latitude
Unknown
Longitude
Unknown
Altitude
Unknown
Speed
Unknown
Apparent Right ascension
Unknown
Apparent Declination
Unknown
Sunlit
N/A
Visualization observer readout
Local Sidereal Time
21:34:53
Azimuth
Unknown
Elevation
Unknown
Doppler factor
Unknown
Orbital elements
Apogee altitude
678.281 km
Perigee altitude
662.489 km
Semi-major axis
7,048.522 km
Eccentricity
0.00112
Inclination
98.3531°
RAAN
317.4824°
Arg. of periapsis
213.4673°
True anomaly
146.65301°
Mean anomaly
146.5824°
Eccentric anomaly
146.61771°
Mean motion
3.66772 °/min
Orbital period
98.15 mins
BSTAR
0.00005768
Loading maneuver chart data...
Computing Atmospheric mass density...
Loading historical data...
Loading historical data...
Loading historical data...
Loading historical data...
Loading historical data...
Loading historical data...
Loading historical data...
Other satellites on launch #66 in the year 2014 (2014-10-27 UTC)

Documentation

Showing up to 5 results
|